User: anonymous   Login
Location: Unspecified
(0.0000°N, 0.0000°E)
Time: 05:44:07
(UTC+00:00)
Language:

TBA - TO BE ASSIGNED - Orbit

View from above orbital plane
View from above orbital plane
View from above satellite
View from above satellite

Ground track
Ground track

The orbit is defined by the following mean orbital elements,

1 67334U          26145.32447267 +.00000000 +00000-0 +83393-3 0 00008
2 67334  43.0040 154.3267 0000540 224.2057 135.8752 15.27609088    02
Epoch (UTC): 25 May 2026 07:47:14
Eccentricity: 0.0000540
inclination: 43.0040°
perigee height: 483 km
apogee height: 483 km
right ascension of ascending node: 154.3267°
argument of perigee: 224.2057°
revolutions per day: 15.27609088
mean anomaly at epoch: 135.8752°

The dashed part of the orbit path shows where the satellite is in the earth's shadow,  

DLR